Regional Weather Roundup
Issued by NWS

Home | Current Version | Previous Version | Graphics & Text | Print | Product List | Glossary Off
Versions: 1 2 3 4 5 6 7 8 9 10 11 12 13 14 15 16 17 18 19 20 21 22 23 24 25 26 27

000
ASUS45 KCYS 310010
RWRWY

WYOMING REGIONAL WEATHER ROUNDUP
NATIONAL WEATHER SERVICE CHEYENNE WY
600 PM MDT MON MAY 30 2016

NOTE:  "FAIR" INDICATES FEW OR NO CLOUDS BELOW 12,000 FEET
WITH NO SIGNIFICANT WEATHER AND/OR OBSTRUCTIONS TO VISIBILITY.

WYZ001-310100-
YELLOWSTONE NATIONAL PARK

CITY           SKY/WX    TMP DP  RH WIND       PRES   REMARKS
LK YELLOWSTONE   N/A     55  18  23 W12G25    30.19R
6HR MIN TEMP:  50; 6HR MAX TEMP:  56;

W YELLOWSTONE  NOT AVBL

$$
WYZ002>013-054>058-071-098>099-310100-
NORTHERN WYOMING

CITY           SKY/WX    TMP DP  RH WIND       PRES   REMARKS
JACKSON        PTSUNNY   63  30  29 SW12G20   30.12S
CODY           CLOUDY    54  39  58 N17       30.09R
GREYBULL       FAIR      64  34  32 N26G40    30.02R
6HR MIN TEMP:  64; 6HR MAX TEMP:  73;

WORLAND        FAIR      65  38  36 N25G35    30.02R
6HR MIN TEMP:  61; 6HR MAX TEMP:  74; 6HR PCP: TRACE;

SHERIDAN       CLOUDY    52  46  80 NW16      30.09S
6HR MIN TEMP:  51; 6HR MAX TEMP:  63; 6HR PCP:  0.09;

BUFFALO        PTSUNNY   51  44  77 N20G28    30.10R
6HR MIN TEMP:  48; 6HR MAX TEMP:  65; 6HR PCP:  0.07;

GILLETTE         N/A     52  47  83 NW10      30.05R
6HR MIN TEMP:  52; 6HR MAX TEMP:  67; 6HR PCP:  0.07;

HULETT         CLOUDY    52  46  82 NW13G24   30.05R
NEWCASTLE      FAIR      68  37  32 NW18      29.94R

$$
WYZ014>020-022>026-101>103-310100-
CENTRAL WYOMING

CITY           SKY/WX    TMP DP  RH WIND       PRES   REMARKS
BIG PINEY      FAIR      62  29  28 NW15G23   30.14R
6HR MIN TEMP:  58; 6HR MAX TEMP:  66;

PINEDALE       FAIR      59  30  33 W20G26    30.14S
DUBOIS         MOCLDY    55  30  38 N22G31    30.11R
LANDER         FAIR      69  29  22 NW12      29.98R
6HR MIN TEMP:  67; 6HR MAX TEMP:  73;

RIVERTON       PTSUNNY   69  40  34 N17G29    30.00R
6HR MIN TEMP:  67; 6HR MAX TEMP:  75;

CASPER         FAIR      63  45  51 NE10      29.99S
6HR MIN TEMP:  51; 6HR MAX TEMP:  68; 6HR PCP:  0.19;

DOUGLAS          N/A    N/A N/A N/A MISG      29.99R

$$
WYZ021-027>030-104>119-310100-
SOUTHERN WYOMING

CITY           SKY/WX    TMP DP  RH WIND       PRES   REMARKS
EVANSTON       FAIR      63  33  32 W17G24    30.17S
6HR MIN TEMP:  58; 6HR MAX TEMP:  66; 6HR PCP: TRACE;

KEMMERER         N/A     61  27  27 W24G31    30.17R
FORT BRIDGER   CLEAR     64  32  29 NW17G28   30.18S
ROCK SPRINGS   FAIR      65  24  21 NW20G35   30.10R
6HR MIN TEMP:  57; 6HR MAX TEMP:  68; 6HR PCP: TRACE;

DIXON          MOCLDY    69  31  25 W12       30.09R
RAWLINS        FAIR      68  25  19 W18G32    30.05S
6HR MIN TEMP:  62; 6HR MAX TEMP:  70;

SARATOGA       MOCLDY    66  32  28 W18       30.08R
LARAMIE        FAIR      65  30  27 W21G28    30.06S
6HR MIN TEMP:  59; 6HR MAX TEMP:  66;

CHEYENNE       FAIR      66  48  52 N6        30.01F
6HR MIN TEMP:  54; 6HR MAX TEMP:  66; 6HR PCP:  0.14;

TORRINGTON     FAIR      67  52  58 SE7       29.91S
6HR MIN TEMP:  59; 6HR MAX TEMP:  79; 6HR PCP:  0.07;

PINE BLUFFS    FAIR      68  39  34 W6        29.97S

$$




USA.gov is the U.S. government's official web portal to all federal, state and local government web resources and services.